Regional Weather Roundup
Issued by NWS

Home | Current Version | Previous Version | Text Only | Print | Product List | Glossary On
Versions: 1 2 3 4 5 6 7 8 9 10 11 12 13 14 15 16 17 18 19 20 21 22 23 24 25 26 27 28 29 30 31 32 33 34 35 36 37 38 39 40 41 42 43 44 45 46 47 48 49 50
000
ASUS43 KTOP 251108
RWRKS

WEATHER ROUNDUP FOR KANSAS
NATIONAL WEATHER SERVICE GOODLAND KS
600 AM CDT SUN SEP 25 2016

NOTE:  "FAIR" INDICATES FEW OR NO CLOUDS BELOW 12,000 FEET WITH NO
SIGNIFICANT WEATHER AND/OR OBSTRUCTIONS TO VISIBILITY.

KSZ001>006-013>018-027>032-041>047-251200-
NORTHWEST KANSAS

CITY           SKY/WX    TMP DP  RH WIND       PRES   REMARKS
GOODLAND       CLEAR     46  40  79 NW12      30.28R
HAYS           PTCLDY    57  39  51 N15       30.17R
HILL CITY      CLEAR     56  44  64 NW15      30.20R HAZE
RUSSELL        MOCLDY    54  48  80 N12       30.15R
$$

KSZ061>065-074>080-084>089-251200-
SOUTHWEST KANSAS

CITY           SKY/WX    TMP DP  RH WIND       PRES   REMARKS
DODGE CITY     CLEAR     51  47  86 N12       30.19R
ELKHART          N/A     54  36  51 N14         N/A
GARDEN CITY    CLEAR     53  42  66 N18       30.21R
GREAT BEND     CLOUDY    55  45  67 N13       30.16R
LIBERAL        CLEAR     54  46  76 N16       30.21R
PRATT          MOCLDY    56  48  73 N22G28    30.13R
$$

KSZ066>073-081>083-090>101-251200-
SOUTHEAST KANSAS

CITY           SKY/WX    TMP DP  RH WIND       PRES   REMARKS
CHANUTE        CLOUDY    69  67  93 CALM      30.05R
COFFEYVILLE    CLOUDY    69  66  90 NW3       30.03S
HUTCHINSON     LGT RAIN  67  66  97 NW7       30.09R
MEDICINE LODGE   N/A     66  65  96 N8          N/A
NEWTON         LGT RAIN N/A N/A N/A W3        30.07S
PARSONS        CLOUDY    69  67  93 N5        30.06R
WICHITA INTL   LGT RAIN  68  68 100 NW8       30.05R
WICHITA JABRA  LGT RAIN  66  66 100 W6        30.05S
WICHITA MCCONL CLOUDY    67  65  95 NW9       30.05R
WINFIELD       RAIN      68  68 100 E7        30.08R
$$

KSZ007>012-019>026-033>040-048>060-102>105-251200-
NORTHEAST KANSAS

CITY           SKY/WX    TMP DP  RH WIND       PRES   REMARKS
CONCORDIA      CLOUDY    57  50  77 NW8       30.13R
EMPORIA        MOCLDY    66  65  96 CALM      30.05S
LAWRENCE       CLOUDY    68  67  96 W7        30.04R
MANHATTAN      CLOUDY    69  67  93 W3        30.05S
MARYSVILLE     CLOUDY    57  54  88 N13       30.10R
OLATHE IND     PTCLDY    68  66  93 W8        30.05R
OLATHE EXE     PTCLDY    67  65  93 W6        30.04R
SALINA         CLOUDY    62  50  64 N21       30.11R
TOPEKA BILLARD RAIN      68  66  93 VRB3      30.04S FOG
TOPEKA FORBES  LGT RAIN  75  75 100 W8        30.04F
$$



USA.gov is the U.S. government's official web portal to all federal, state and local government web resources and services.